Location: Beetenbrück
(52.8113°N, 9.5946°E)
Time: 16:43:37
(UTC+00:00)

Cosmos 2297 - Pass Details

Date: 14 April 2026
Orbit: 833 x 859 km, 71.0° (Epoch: 9 May)

Event Time Altitude Azimuth Distance (km) Brightness Sun altitude
Rises 21:48:13 0° 327° (NNW) 3,445 8.3 -24.4°
Reaches altitude 10° 21:50:42 10° 325° (NW) 2,505 7.2 -24.6°
Maximum altitude 21:56:25 68° 244° (WSW) 928 3.8 -24.9°
Enters shadow 21:57:15 59° 198° (SSW) 989 3.7 -25.0°
